Wind_Speed
16 13 11 10 9 9 10 11 13 13 15 16 17 18 19 19 19 20 20 20 21 21 22 22 22 23 23 23 24 25 25 26 27 28 29 29 31 32 32 33 33 32 32
7 7 7 7 8 9 10 11 13 14 15 16 18 19 20 20 20 20 20 21 21 21 21 22 22 22 23 23 23 24 24 25 25 27 28 29 30 31 32 33 34 35 35
2 3 4 5 7 9 10 12 13 15 16 18 19 19 19 20 20 20 20 20 20 20 20 20 21 21 22 23 23 24 24 25 26 26 27 28 30 31 32 33 34 35 36
3 4 4 6 8 10 12 13 15 16 17 18 18 18 18 18 18 18 18 18 18 18 18 18 19 20 21 22 23 24 25 26 27 27 27 28 29 31 32 33 34 35 36
6 6 7 8 10 12 14 15 16 17 17 17 17 17 17 17 17 17 17 17 16 17 18 18 19 20 21 22 23 24 26 27 28 29 29 29 30 31 32 33 34 35 36
8 8 9 11 12 14 15 15 15 15 16 16 17 17 17 17 18 18 18 18 17 17 18 19 20 21 22 23 24 26 27 28 30 31 32 32 32 33 33 34 35 36 37
10 11 12 13 14 14 14 15 15 16 16 16 16 17 17 18 18 18 19 19 19 20 20 21 21 22 23 24 26 27 29 30 31 33 34 35 35 35 36 36 36 37 38
10 11 12 13 14 14 15 15 15 16 16 16 17 17 18 19 19 19 20 21 22 23 23 23 24 25 26 27 28 29 30 31 32 34 35 37 38 38 38 39 38 38 39
11 11 12 13 14 14 15 15 16 16 17 17 18 19 20 20 21 21 22 23 24 25 26 27 27 28 29 29 30 31 31 33 34 35 36 38 39 39 40 41 41 41 40
11 12 13 13 14 14 15 16 16 17 17 18 19 20 21 22 23 24 25 25 26 27 28 29 30 31 32 32 33 33 33 34 35 35 36 37 39 40 40 41 42 42 42
12 13 13 14 15 15 16 16 17 18 19 20 21 22 23 24 25 25 27 28 29 30 31 33 33 34 35 35 35 35 35 35 35 36 36 37 38 38 40 41 42 43 43
13 14 14 15 16 16 17 18 18 19 20 22 23 24 25 26 27 28 29 30 32 33 34 36 36 37 38 38 37 37 36 35 35 36 36 36 37 37 39 40 41 42 43
14 15 15 16 16 17 18 19 20 21 23 24 25 26 27 28 29 30 31 33 35 36 38 39 40 40 40 40 39 37 36 35 35 35 35 35 35 36 37 39 40 41 43
15 15 16 16 17 18 19 20 22 23 25 26 27 28 29 30 31 33 34 36 37 39 40 41 42 42 42 41 39 37 37 36 35 35 34 34 34 35 36 37 39 40 42
15 15 16 17 18 19 20 22 24 25 27 28 28 29 31 32 33 35 37 39 40 42 43 44 44 43 42 41 39 37 36 36 35 35 34 34 34 34 35 36 37 39 40
15 16 17 18 19 21 23 24 26 27 28 29 30 31 32 34 35 37 39 41 42 44 45 45 44 43 42 40 39 37 36 35 35 34 34 34 33 34 35 36 37 39 40
16 17 18 20 21 23 25 27 28 29 30 31 31 32 34 35 37 39 41 43 44 45 45 45 44 42 41 40 38 37 35 35 34 33 33 33 33 33 34 35 37 38 40
17 19 20 22 24 25 27 28 29 30 31 32 32 34 35 37 39 41 44 45 46 46 46 45 43 41 40 38 37 35 34 34 33 32 32 32 33 33 33 34 35 37 39
20 21 23 24 26 28 29 30 31 32 32 33 34 35 37 39 41 44 46 47 47 47 46 44 42 39 38 37 35 34 33 32 32 32 31 31 32 32 32 33 34 36 39
24 25 26 28 29 30 32 33 33 34 34 35 36 38 40 42 44 46 48 49 48 47 45 43 41 38 37 36 35 33 32 32 31 31 31 31 31 32 32 33 34 35 38
27 28 30 31 33 34 35 35 36 36 37 38 39 41 42 44 47 49 50 50 49 47 44 42 39 37 35 34 33 32 32 31 31 31 31 31 30 31 32 33 34 35 36
30 32 33 34 36 37 38 39 39 40 40 41 42 43 44 47 50 51 51 51 49 46 43 40 37 36 34 34 33 32 32 31 31 30 30 30 30 30 30 31 32 34 35
33 34 36 37 38 40 41 43 44 44 45 45 45 46 47 49 51 52 52 51 49 45 42 39 36 35 34 34 32 32 31 31 30 29 29 29 29 28 28 28 29 30 32
35 37 38 39 40 42 44 46 48 49 50 49 48 49 49 51 52 52 52 51 48 45 41 38 36 35 34 33 32 31 31 30 29 28 28 28 27 27 27 27 27 28 29
38 39 40 41 42 45 47 49 51 53 52 51 51 52 53 53 53 53 52 50 47 44 40 37 35 34 33 33 32 32 31 30 29 28 27 27 26 26 25 25 25 26 27
41 42 43 44 46 48 49 50 52 54 54 54 54 54 54 53 53 52 50 48 45 43 40 37 35 33 32 32 32 31 30 30 28 27 26 25 24 24 23 24 23 24 25
Wind_Direction
267 266 272 282 293 304 309 312 312 310 310 311 310 310 308 306 304 302 299 296 294 291 288 285 283 282 281 280 278 276 274 272 271 268 266 264 261 259 256 254 253 252 251
262 269 279 294 307 313 316 317 317 318 319 320 320 320 318 315 313 310 308 304 300 296 292 289 287 285 284 282 281 279 277 274 272 270 267 265 262 259 257 254 252 252 251
291 304 313 316 324 327 326 326 326 324 325 326 326 325 323 320 318 316 312 309 304 301 298 295 292 289 287 286 284 283 281 278 275 272 269 266 264 261 257 255 253 252 250
19 0 339 336 336 333 330 329 328 327 327 327 326 325 324 323 322 321 318 315 310 307 304 301 298 296 294 291 289 286 284 282 278 275 271 268 265 262 259 256 254 252 249
18 7 354 345 338 335 332 330 328 327 326 324 324 325 325 325 325 325 323 321 318 315 311 308 305 302 299 297 294 291 288 285 281 278 274 270 266 263 260 257 255 252 249
1 353 346 342 338 335 332 329 327 326 324 324 326 327 328 328 328 327 325 322 320 317 315 311 308 306 303 300 297 294 291 287 284 280 276 273 269 265 261 257 255 253 250
346 341 339 339 335 331 329 327 325 324 324 327 329 330 331 330 329 328 327 326 323 320 317 314 311 309 306 303 300 296 293 289 285 282 278 274 270 266 262 258 255 253 250
333 331 331 330 328 325 323 322 323 324 325 326 327 328 329 329 329 328 327 325 324 322 319 317 315 312 309 306 303 299 295 291 287 283 279 275 271 267 262 259 255 252 249
323 322 321 320 320 319 318 317 319 321 323 324 325 326 326 325 325 326 325 324 323 322 320 318 315 313 311 308 304 301 297 292 287 283 280 276 271 267 262 259 255 252 248
311 311 311 310 311 313 314 315 318 321 324 325 326 326 326 325 324 324 323 322 321 320 319 318 315 313 311 309 305 301 298 293 288 283 280 276 272 267 263 259 255 252 248
301 301 302 304 306 310 313 317 320 323 326 328 328 328 327 325 324 324 323 322 320 320 319 317 315 312 310 308 306 302 298 294 289 284 280 276 272 268 263 259 255 252 247
296 297 299 301 305 309 314 318 322 325 328 329 329 329 328 326 325 324 323 322 320 319 318 316 314 312 310 308 306 303 299 295 290 285 280 276 273 269 264 259 255 251 247
295 297 300 302 306 311 316 321 324 327 329 329 329 328 328 326 325 324 323 322 320 319 317 316 314 311 309 308 306 303 299 295 291 286 281 277 273 269 265 260 255 251 247
295 298 301 304 309 314 319 323 326 328 329 329 329 328 327 327 326 324 323 322 320 318 317 315 313 311 309 307 305 303 299 296 292 287 282 278 274 270 265 261 256 252 248
298 300 302 306 311 316 320 323 326 327 328 328 327 326 325 325 324 324 323 321 320 318 316 314 313 311 308 307 305 302 299 296 292 288 284 279 275 271 266 262 257 252 248
301 303 305 309 313 316 319 322 324 325 326 325 325 324 324 324 323 322 322 321 320 319 317 315 313 310 308 306 304 302 299 296 293 290 285 281 276 272 267 262 258 253 249
304 305 308 311 313 315 317 320 321 322 323 323 322 322 322 322 322 322 322 321 321 319 317 315 313 310 307 305 304 302 300 296 293 291 287 283 279 273 268 263 258 254 250
304 306 307 309 311 313 315 317 319 320 320 320 320 320 321 322 322 323 323 323 322 320 318 316 314 310 307 305 304 302 300 297 294 292 289 285 281 276 270 265 261 256 251
305 305 307 308 310 312 313 315 316 317 317 318 318 319 320 322 323 323 324 324 323 321 319 316 314 310 308 306 304 302 300 297 294 293 290 287 283 278 273 268 263 259 253
305 305 307 308 310 311 312 314 314 315 315 316 317 318 320 321 323 324 325 325 324 323 320 317 314 311 308 307 305 304 302 298 296 293 291 288 284 279 274 270 266 261 256
304 305 307 308 310 311 312 312 312 313 314 315 316 318 319 322 323 324 324 324 324 323 320 317 314 311 309 307 305 303 302 300 297 294 292 289 285 281 276 271 267 262 258
305 306 308 309 310 310 310 310 311 311 312 313 315 317 319 322 323 323 323 323 324 323 320 317 313 311 309 308 306 304 303 301 298 295 292 289 286 283 279 273 268 264 259
304 305 307 308 308 308 309 309 310 310 311 313 314 315 316 319 320 321 322 322 322 321 319 317 314 312 310 309 307 306 304 302 300 296 293 290 286 283 280 276 270 265 259
301 303 304 305 305 305 305 306 308 309 310 311 313 314 315 316 317 318 320 320 319 319 318 315 313 312 310 309 308 308 306 304 302 298 296 292 287 284 282 279 274 268 261
299 299 300 301 301 301 301 302 305 307 308 309 312 312 312 314 314 315 317 317 317 317 317 315 313 311 309 309 309 308 307 305 302 299 298 294 289 285 283 281 277 270 262
297 297 298 298 299 300 301 302 304 305 306 309 310 310 310 312 312 313 314 315 314 314 314 314 313 310 309 309 310 309 308 305 303 300 299 297 290 285 283 282 279 272 264
Height
5863 5864 5865 5866 5866 5866 5865 5864 5863 5861 5860 5858 5855 5853 5851 5849 5847 5845 5843 5840 5839 5837 5835 5834 5833 5832 5831 5830 5829 5829 5828 5828 5828 5828 5828 5829 5829 5830 5831 5833 5834 5835 5837
5860 5861 5862 5863 5863 5862 5862 5860 5859 5857 5856 5853 5851 5848 5846 5843 5841 5839 5837 5834 5832 5831 5829 5827 5826 5825 5824 5823 5823 5822 5821 5821 5821 5820 5820 5821 5822 5822 5823 5824 5826 5827 5829
5858 5859 5860 5860 5860 5860 5859 5857 5856 5854 5852 5849 5846 5844 5841 5839 5836 5834 5832 5829 5827 5825 5823 5822 5820 5819 5818 5817 5816 5815 5814 5813 5813 5813 5813 5813 5813 5813 5815 5816 5817 5818 5820
5858 5858 5858 5858 5858 5857 5856 5854 5852 5850 5847 5845 5843 5840 5838 5835 5832 5829 5827 5825 5822 5820 5818 5817 5815 5813 5812 5810 5809 5808 5807 5806 5805 5805 5805 5805 5805 5805 5806 5807 5808 5809 5811
5857 5857 5857 5856 5855 5854 5853 5851 5849 5847 5845 5842 5840 5837 5834 5831 5829 5826 5823 5821 5819 5816 5814 5812 5810 5808 5806 5804 5803 5801 5800 5798 5797 5797 5796 5796 5796 5796 5797 5798 5798 5800 5801
5856 5856 5855 5854 5853 5852 5850 5849 5847 5845 5843 5840 5837 5834 5831 5828 5825 5822 5820 5817 5815 5812 5810 5807 5805 5802 5800 5798 5796 5794 5792 5790 5789 5787 5787 5787 5787 5787 5787 5788 5789 5790 5792
5855 5854 5853 5852 5851 5850 5849 5847 5845 5843 5840 5838 5835 5832 5828 5825 5822 5819 5816 5813 5810 5807 5805 5802 5799 5796 5794 5791 5789 5786 5784 5782 5780 5778 5777 5776 5776 5776 5777 5778 5779 5780 5782
5854 5853 5852 5851 5850 5849 5847 5845 5843 5841 5838 5835 5832 5829 5826 5822 5819 5815 5812 5808 5805 5802 5799 5796 5793 5790 5787 5784 5781 5778 5775 5773 5770 5768 5766 5765 5765 5765 5766 5767 5768 5770 5771
5853 5852 5851 5850 5849 5847 5846 5843 5841 5838 5835 5832 5829 5826 5822 5818 5815 5811 5807 5804 5800 5796 5793 5789 5786 5782 5779 5775 5772 5769 5766 5763 5760 5758 5756 5754 5753 5753 5753 5754 5756 5758 5760
5852 5851 5850 5849 5847 5845 5843 5841 5838 5835 5832 5828 5825 5821 5817 5814 5810 5806 5802 5798 5794 5790 5786 5782 5778 5774 5770 5766 5762 5759 5756 5752 5749 5746 5744 5742 5741 5740 5741 5742 5743 5746 5749
5851 5849 5848 5847 5845 5843 5840 5838 5835 5831 5828 5824 5820 5816 5812 5808 5804 5800 5796 5792 5787 5783 5779 5774 5769 5765 5761 5756 5752 5748 5744 5741 5737 5734 5732 5730 5729 5728 5728 5729 5731 5733 5736
5848 5847 5845 5844 5842 5840 5837 5834 5830 5826 5823 5819 5815 5811 5806 5802 5798 5794 5790 5785 5780 5775 5771 5766 5760 5755 5751 5746 5741 5737 5733 5729 5726 5723 5720 5718 5717 5716 5716 5716 5718 5720 5723
5845 5844 5842 5840 5838 5835 5832 5829 5825 5821 5817 5813 5809 5805 5800 5796 5792 5787 5782 5778 5773 5767 5762 5756 5751 5745 5740 5735 5730 5725 5721 5717 5714 5711 5708 5706 5705 5704 5704 5704 5705 5708 5711
5842 5840 5838 5836 5833 5830 5827 5824 5820 5816 5812 5807 5803 5799 5794 5790 5785 5780 5775 5770 5764 5758 5752 5746 5740 5734 5728 5723 5718 5714 5710 5706 5702 5699 5697 5695 5693 5692 5692 5692 5693 5695 5698
5837 5835 5833 5831 5828 5825 5822 5818 5814 5810 5806 5802 5797 5793 5788 5783 5778 5773 5767 5762 5755 5749 5743 5736 5730 5723 5717 5712 5707 5702 5698 5694 5690 5687 5685 5683 5682 5680 5680 5680 5681 5683 5686
5832 5830 5828 5825 5823 5819 5816 5812 5808 5804 5800 5795 5791 5786 5781 5776 5771 5765 5759 5753 5746 5739 5732 5726 5719 5712 5706 5701 5696 5691 5687 5683 5679 5676 5673 5671 5670 5669 5668 5669 5669 5671 5674
5827 5825 5822 5820 5817 5814 5810 5806 5802 5798 5793 5789 5784 5780 5774 5769 5763 5757 5750 5744 5737 5730 5722 5715 5708 5701 5695 5690 5685 5680 5676 5672 5668 5665 5662 5660 5658 5657 5656 5656 5657 5659 5661
5822 5819 5817 5814 5811 5807 5803 5799 5795 5791 5787 5782 5777 5772 5767 5761 5755 5748 5741 5734 5727 5719 5711 5704 5697 5690 5684 5679 5674 5670 5665 5661 5657 5654 5651 5648 5646 5645 5644 5645 5645 5647 5649
5816 5814 5811 5808 5804 5801 5797 5793 5788 5784 5779 5775 5770 5764 5759 5752 5746 5739 5731 5724 5716 5708 5701 5693 5686 5680 5674 5669 5664 5659 5655 5651 5647 5644 5640 5638 5636 5634 5633 5633 5633 5634 5635
5810 5807 5804 5801 5797 5793 5789 5785 5780 5776 5771 5766 5761 5756 5750 5743 5736 5729 5721 5713 5705 5697 5690 5682 5676 5670 5664 5659 5654 5649 5645 5641 5637 5633 5630 5627 5625 5623 5621 5621 5621 5622 5623
5803 5800 5797 5793 5789 5785 5781 5776 5772 5767 5762 5757 5752 5746 5740 5733 5726 5719 5711 5703 5695 5687 5680 5673 5666 5660 5654 5649 5644 5640 5635 5631 5627 5623 5620 5617 5614 5612 5610 5609 5609 5609 5610
5795 5792 5788 5784 5780 5776 5772 5767 5763 5758 5753 5748 5742 5736 5729 5723 5716 5708 5700 5692 5685 5677 5670 5663 5656 5650 5645 5640 5635 5630 5626 5621 5617 5613 5610 5606 5604 5601 5599 5598 5597 5597 5598
5786 5783 5779 5775 5771 5767 5762 5757 5752 5747 5743 5737 5732 5725 5719 5712 5705 5697 5690 5682 5674 5667 5660 5653 5647 5641 5636 5631 5626 5621 5616 5612 5607 5603 5600 5596 5593 5591 5589 5587 5586 5585 5585
5777 5774 5770 5766 5761 5757 5752 5747 5742 5736 5731 5726 5720 5714 5708 5701 5694 5687 5679 5671 5664 5657 5651 5644 5638 5632 5627 5621 5617 5612 5607 5602 5598 5594 5590 5586 5583 5581 5579 5577 5575 5574 5574
5767 5764 5760 5756 5751 5747 5742 5736 5731 5725 5720 5714 5708 5702 5696 5690 5682 5675 5668 5660 5654 5647 5641 5635 5629 5624 5618 5613 5608 5603 5598 5593 5589 5585 5581 5577 5574 5572 5569 5567 5565 5564 5564
5757 5753 5749 5745 5740 5735 5730 5725 5719 5714 5708 5702 5697 5691 5684 5678 5671 5663 5656 5650 5644 5637 5631 5626 5620 5615 5609 5604 5599 5594 5589 5584 5580 5575 5572 5568 5566 5563 5561 5559 5557 5556 5555